Location: Arrakis Observatory
(44.1122°N, 95.7153°W)
Time: 13:30:35
(UTC-05:00)

Daily predictions for brighter satellites

Satellite Brightness Start Highest point End
(mag) Time Altitude Azimuth Time Altitude Azimuth Time Altitude Azimuth
Envisat 3.3 21:23:01 10° S 21:28:04 73° WSW 21:33:11 10° NNW
TIMED 4.5 21:24:58 10° SSW 21:29:18 74° ESE 21:33:42 10° NNE
Cosmos 1939 Rocket 3.0 21:25:11 10° SSE 21:29:20 90° W 21:33:27 10° NNW
Helios 1A 3.0 21:27:04 10° SSE 21:31:15 73° ENE 21:35:28 10° N
Cosmos 2221 Rocket 3.7 21:27:41 10° N 21:32:06 60° E 21:36:31 10° SSE
Cosmos 1825 2.9 21:30:05 10° SSE 21:33:31 34° E 21:36:58 10° NNE
Cosmos 1269 Rocket 4.2 21:37:21 10° NNW 21:42:37 61° ENE 21:47:49 10° SSE
Cosmos 1125 Rocket 3.5 21:39:22 10° S 21:44:31 63° ESE 21:49:41 10° NNE
USA 186 4.2 21:42:34 10° SW 21:44:42 20° W 21:46:58 10° NW
Meteor 2-3 Rocket 4.4 21:40:53 10° SSW 21:46:32 62° WNW 21:52:08 10° N
Cosmos 1634 Rocket 4.3 21:42:42 10° N 21:49:01 76° W 21:55:19 10° S
Cosmos 2227 Rocket 4.5 21:48:12 10° NNE 21:49:56 11° NE 21:51:39 10° NE
Cosmos 1782 2.7 21:46:24 10° N 21:50:26 79° E 21:54:23 10° SSE
deb Kosmos-1763 4.1 21:52:04 10° NNW 21:55:52 88° ENE 21:59:17 12° SSE
Cosmos 1943 Rocket 2.1 21:51:51 10° SSW 21:57:24 73° ESE 22:02:57 10° NNE
Cosmos 2219 4.4 21:54:44 10° N 21:59:43 29° NE 22:04:04 13° ESE
Cosmos 158 Rocket 3.9 21:58:02 10° NNW 22:02:57 80° WSW 22:07:35 11° SSE
Okean 1-7 3.5 22:00:06 10° NNW 22:04:29 62° W 22:08:48 10° S
SAR-Lupe-4 3.8 22:01:49 10° S 22:05:23 71° WSW 22:08:58 10° NNW
Resurs 01 Rocket 4.3 22:03:06 10° SW 22:05:56 17° W 22:08:47 10° NW
Cosmos 1340 2.6 22:02:16 10° N 22:06:04 78° E 22:09:15 14° SSE
Cosmos 1862 3.3 22:09:35 11° S 22:13:24 60° E 22:17:19 10° NNE
Meteor 1-29 3.6 22:10:15 10° N 22:13:42 60° WNW 22:17:07 10° SSW
CZ-4B DEB 4.1 22:13:49 10° SSW 22:16:29 32° W 22:19:10 10° NNW
YAOGAN 6 4.2 22:13:09 10° SSW 22:16:31 33° W 22:19:53 10° NNW
NOAA 11 4.3 22:11:36 10° S 22:17:04 78° WSW 22:22:36 10° NNW
Cosmos 1867 3.9 22:12:01 10° NNW 22:17:24 55° NE 22:21:08 19° ESE
ISS -2.1 22:15:09 10° W 22:18:10 34° NNW 22:21:12 10° NE
Cosmos 2279 Rocket 4.2 22:14:05 10° NNW 22:20:20 73° W 22:26:32 10° S
Cosmos 2344 3.6 22:15:25 10° SSW 22:22:58 69° ESE 22:31:26 10° NE
Terra 3.1 22:20:54 17° ESE 22:23:21 26° ENE 22:27:17 10° N
Helios 1B rocket 3.7 22:19:35 10° N 22:23:29 42° WNW 22:27:20 10° SW
BREEZE-M DEB (TANK) 3.2 22:20:40 10° WNW 22:23:49 83° NNE 22:34:00 13° ESE
H-2A R/B 2.3 22:20:37 19° SE 22:24:23 57° ENE 22:29:34 10° N
Cosmos 2369 Rocket 3.6 22:21:51 10° SW 22:27:11 41° WNW 22:32:34 10° NNE
Cosmos 1606 4.0 22:24:28 10° NNW 22:27:59 38° W 22:31:30 10° SSW
ERS-1 Rocket 3.4 22:23:43 11° S 22:28:33 60° W 22:33:32 10° NNW
Gbstr 26 Del rocket 4.3 22:27:02 10° NW 22:31:27 37° NNE 22:35:02 11° E
Lacrosse 4 Rocket 2.2 22:28:50 10° NW 22:33:11 49° WSW 22:36:05 19° S
Cosmos 1733 Rocket 2.9 22:33:26 15° S 22:36:58 84° E 22:41:20 10° N
Cosmos 1437 3.0 22:38:10 10° N 22:41:20 51° ENE 22:41:58 42° ESE
ATLAS 5 CENTAUR R/B 3.1 22:35:53 10° NW 22:41:39 47° WSW 22:46:13 18° S
ATLAS CENTAUR R/B 1.8 22:41:20 33° SE 22:42:04 36° ESE 22:45:39 10° NE
Nimbus 7 Rocket 4.4 22:36:17 10° NNE 22:42:08 60° ESE 22:46:30 18° S
Cosmos 2297 Rocket 4.0 22:40:40 10° N 22:44:54 21° NE 22:48:21 13° E
USA 215 3.3 22:40:49 23° SE 22:45:11 81° SW 22:51:48 10° NW
SPOT 5 3.3 22:45:33 20° S 22:49:20 70° WSW 22:54:37 10° NNW
Cosmos 1656 Rocket 3.6 22:46:18 10° SSW 22:51:46 88° ESE 22:57:20 10° NNE
Lacrosse 5 rocket 3.6 22:49:53 10° W 22:52:49 23° NNW 22:55:50 10° NNE
Cosmos 1346 2.8 22:51:24 10° N 22:53:57 66° NE 22:53:57 66° NE
ARGOS 3.7 22:51:39 17° S 22:55:42 53° W 23:00:58 10° NNW
Sich 1 Rocket 3.7 22:56:05 37° SSE 22:57:31 55° E 23:01:51 10° NNE
Meteor 2-20 4.4 22:54:06 18° S 22:58:46 83° E 23:04:54 10° N
Meteor 2-20 Rocket 4.4 22:56:47 25° S 23:00:31 67° E 23:06:35 10° NNE
Cosmos 1975 Rocket 3.8 22:57:29 10° N 23:01:41 39° ENE 23:02:42 34° ESE
CENTAUR R/B 3.8 23:02:50 10° WSW 23:08:44 43° NW 23:15:29 10° NNE
CARTOSAT-1 3.5 23:10:22 46° SSE 23:11:33 74° ENE 23:15:53 10° N
Cosmos 1378 Rocket 3.5 23:08:14 10° N 23:12:43 89° WSW 23:14:04 45° S
Cosmos 2251 Rocket 3.5 23:07:34 10° NNW 23:12:48 74° WSW 23:14:57 36° S
Cosmos 1674 Rocket 4.3 23:08:52 10° NNW 23:13:02 48° W 23:15:02 27° SSW
Cosmos 1655 Rocket 4.3 23:11:03 33° SE 23:13:16 47° E 23:19:12 10° NNE
Cosmos 1633 4.3 23:15:21 20° ENE 23:15:21 20° ENE 23:17:15 10° NE
Cosmos 2026 Rocket 4.0 23:15:05 33° SSE 23:17:53 66° E 23:24:07 10° NNE
Okean 3 3.6 23:15:07 10° NNW 23:19:16 67° W 23:20:28 43° SSW
IGS 5A 3.3 23:20:17 56° SSE 23:21:08 88° ENE 23:25:18 10° NNW
DMSP B5D2-2 4.1 23:16:22 10° NNE 23:21:37 82° WNW 23:24:32 27° SSW
SPOT 1/Viking Rocket 4.3 23:20:11 24° SSW 23:22:59 46° W 23:28:00 10° NNW
Meteor 1-20 Rocket 4.3 23:22:49 40° SSE 23:24:40 59° E 23:30:14 10° NNE
CZ-2C R/B 4.3 23:23:53 10° NE 23:26:55 17° E 23:26:55 17° E
H-2A R/B 1.9 23:27:42 60° ESE 23:28:11 67° ENE 23:32:18 10° N
Cosmos 1417 Rocket 4.5 23:28:13 10° N 23:34:30 72° E 23:36:44 42° SSE
Cosmos 2227 Rocket 2.6 23:29:48 10° NNW 23:35:22 53° ENE 23:37:06 39° ESE
Meteor 1-25 Rocket 4.2 23:33:11 40° S 23:35:26 81° E 23:41:18 10° NNE
CZ-4C R/B 4.2 23:30:39 10° NNW 23:36:39 31° NE 23:42:51 11° E
Milstar 3 4.1 23:34:06 10° WSW 23:41:17 26° SSW 23:41:17 26° SSW
S3M 4.0 23:36:25 10° N 23:42:31 64° E 23:44:18 45° SE
Cosmos 1812 3.0 23:38:52 10° NNW 23:42:42 59° W 23:42:56 58° WSW
Cosmos 2219 3.8 23:38:34 10° NW 23:44:06 49° WSW 23:45:59 36° SSW
GEOS 3 Rocket 3.6 23:46:59 54° S 23:48:06 73° SW 23:53:22 10° NW
ISS -1.2 23:52:43 10° NW 23:55:17 21° N 23:57:24 12° NE
